Location: Bucquoy
(50.1391°N, 2.7097°E)
Time: 13:10:39
(UTC+00:00)

Spot 4 Rocket - Pass Details

Date: 06 May 2021
Orbit: 775 x 782 km, 98.7° (Epoch: 22 June)

Event Time Altitude Azimuth Distance (km) Brightness Sun altitude
Rises 03:19:47 0° 16° (NNE) 3,279 8.3 -8.4°
Reaches altitude 10° 03:22:08 10° 19° (NNE) 2,346 7.5 -8.1°
Maximum altitude 03:27:18 69° 103° (ESE) 834 4.4 -7.5°
Drops below altitude 10° 03:32:25 10° 187° (S) 2,324 6.1 -6.8°
Sets 03:34:43 0° 190° (S) 3,246 6.8 -6.5°
